星链-3558 (STARLINK-3558 )

导读 | 星芒AI

STARLINK-3558 是 SpaceX Starlink 卫星互联网项目中的第 3558 颗卫星,属于“星链”计划的中轨道卫星群之一。该卫星于 2023 年发射,旨在为全球用户提供高速、低延迟的互联网服务,特别是在网络基础设施薄弱的地区。它运行在约 550 公里的轨道高度,配备先进通信设备,支持全球宽带连接。作为星链系统的一部分,STARLINK-3558 有助于扩展覆盖范围,提升网络性能,并推动 SpaceX 在全球卫星互联网市场的布局。

基本信息
目录编号:
52119
目录名称:
STARLINK-3558
国际标识:
2022-029AH
轨道中心:
EARTH
卫星名称:
星链-3558
卫星全名:
星链-3558 (STARLINK-3558 )
卫星状态:
在轨 (已飞行1372 天)
发射日期:
2022-03-19 UTC
国别 :
美国 (US)
星等 :
--
轨道信息
数据来源 国际轨道数据
星历时间: 2025-12-19T20:02:22+0800
1天前
查看轨道信息
半长轴: 6917.892km
偏心率: 0.0001292
轨道倾角: 53.219°
近地点辐角 93.154°
升交点赤经 79.099°
平近点角 266.960°
近地点: 538.861km
远地点: 540.649km
周期: 95.438分钟
每日圈数: 15.088363
详细信息
固有亮度:
5
最大亮度:
2.5
卫星平台:
Starlink v1.5
覆盖范围:
全球
运营商:
太空探索技术公司
运营商所在国:
美国
制造商(研发单位):
太空探索技术公司
制造商所在国:
美国
使用方式:
暂无
卫星简介
星链(Starlink)计划是由太空探索技术公司(SpaceX)提出的一个巨型低轨卫星互联网星座项目,计划在2019年至2024年间在太空搭建由约1.2万颗卫星组成的“星链”网络,其中1584颗将部署在地球上空550千米处的近地轨道,并从2020年开始工作。该卫星仍在工作。
2D轨道图
3D轨道图
轨道高度分析图
轨道倾角分析图
轨道综合分析图
查看轨道综合分析图